K2MST Weather Reports


time (UTC)temp
C
wind
direction
speed
KPH
gust
KPH
rain 1hr
cm
rain 24hr
cm
rain mn
cm
humidity
%
barometer
mb
20260906163018 22 23 9.7 17.7 0.00 0.00 0.00 58 1015.8
20260906162018 22 338 4.8 16.1 0.00 0.00 0.00 57 1015.9
20260906161038 21 293 3.2 6.4 0.00 0.00 0.00 58 1016.0
20260906160018 21 338 6.4 14.5 0.00 0.00 0.00 58 1015.9
20260906155018 21 23 3.2 9.7 0.00 0.00 0.00 61 1016.1
20260906154018 21 45 3.2 14.5 0.00 0.00 0.00 61 1016.1
20260906153018 21 338 9.7 17.7 0.00 0.00 0.00 61 1016.1
20260906152018 21 0 4.8 17.7 0.00 0.00 0.00 61 1016.1
20260906151018 21 68 4.8 17.7 0.00 0.00 0.00 63 1016.3
20260906150018 20 23 6.4 17.7 0.00 0.00 0.00 64 1016.3
20260906145018 20 23 9.7 22.5 0.00 0.00 0.00 63 1016.2
20260906144038 20 45 8.0 19.3 0.00 0.00 0.00 64 1016.1
20260906143018 20 23 4.8 11.3 0.00 0.00 0.00 67 1016.0
20260906142018 20 23 4.8 9.7 0.00 0.00 0.00 68 1015.9
20260906141018 20 23 4.8 9.7 0.00 0.00 0.00 70 1015.9
20260906140038 19 23 1.6 6.4 0.00 0.00 0.00 73 1016.0
20260906135018 18 23 4.8 6.4 0.00 0.00 0.00 75 1016.0
20260906134019 18 338 3.2 8.0 0.00 0.00 0.00 75 1016.0
20260906133018 18 45 3.2 6.4 0.00 0.00 0.00 78 1016.0
20260906132038 17 23 3.2 6.4 0.00 0.00 0.00 78 1016.0
20260906131018 17 23 3.2 4.8 0.00 0.00 0.00 80 1016.0
20260906130018 17 23 3.2 9.7 0.00 0.00 0.00 81 1015.9
20260906125018 17 23 4.8 9.7 0.00 0.00 0.00 83 1015.8
20260906124018 17 338 6.4 11.3 0.00 0.00 0.00 82 1015.8
20260906123018 16 23 6.4 11.3 0.00 0.00 0.00 83 1015.7
20260906122037 16 338 6.4 11.3 0.00 0.00 0.00 85 1015.7
20260906121017 16 338 6.4 9.7 0.00 0.00 0.00 85 1015.6
20260906120017 16 338 4.8 8.0 0.00 0.00 0.00 86 1015.6
20260906115038 16 338 4.8 8.0 0.00 0.00 0.00 86 1015.5
20260906114018 16 338 4.8 9.7 0.00 0.00 0.00 87 1015.4
20260906113017 15 338 4.8 9.7 0.00 0.00 0.00 87 1015.3
20260906112017 16 338 3.2 6.4 0.00 0.00 0.00 88 1015.2
20260906111017 16 338 3.2 6.4 0.00 0.00 0.00 88 1015.1
20260906110059 16 338 3.2 4.8 0.00 0.00 0.00 88 1014.9
20260906105017 16 338 3.2 6.4 0.00 0.00 0.00 88 1014.6
20260906104017 16 338 4.8 8.0 0.00 0.00 0.00 88 1014.5
20260906103017 16 0 3.2 6.4 0.00 0.00 0.00 89 1014.5
20260906102017 16 338 1.6 3.2 0.00 0.00 0.00 89 1014.2
20260906101037 16 23 3.2 6.4 0.00 0.00 0.00 90 1014.2
20260906100017 16 338 4.8 8.0 0.00 0.00 0.00 91 1014.1
20260906095037 15 270 1.6 3.2 0.00 0.00 0.00 91 1014.0
20260906094017 15 0.0 1.6 0.00 0.00 0.00 92 1013.9
20260906093017 15 0.0 0.0 0.00 0.00 0.00 91 1013.7
20260906092017 15 0.0 1.6 0.00 0.00 0.00 91 1013.6
20260906091017 15 0.0 0.0 0.00 0.00 0.00 91 1013.4
20260906090017 15 180 1.6 3.2 0.00 0.00 0.00 91 1013.3
20260906085017 15 0.0 0.0 0.00 0.00 0.00 91 1013.2
20260906084017 15 0.0 1.6 0.00 0.00 0.00 91 1013.2
20260906083017 15 0.0 3.2 0.00 0.00 0.00 90 1013.1
20260906082017 16 0.0 1.6 0.00 0.00 0.00 90 1013.0
20260906081017 16 0.0 3.2 0.00 0.00 0.00 90 1012.8
20260906080017 16 180 1.6 4.8 0.00 0.00 0.00 89 1012.9
20260906075019 16 180 1.6 3.2 0.00 0.00 0.00 89 1012.9
20260906074019 16 0.0 0.0 0.00 0.00 0.00 89 1012.8
20260906073039 16 0.0 0.0 0.00 0.00 0.00 88 1012.7
20260906072019 16 0.0 0.0 0.00 0.00 0.00 88 1012.6
20260906071019 17 0.0 3.2 0.00 0.00 0.00 87 1012.7
20260906070019 17 0.0 1.6 0.00 0.00 0.00 86 1012.7
20260906065018 18 0.0 1.6 0.00 0.00 0.00 86 1012.7
20260906064019 18 0.0 1.6 0.00 0.00 0.00 85 1012.7
20260906063018 18 293 1.6 6.4 0.00 0.00 0.00 84 1012.7
20260906062018 18 293 1.6 4.8 0.00 0.00 0.00 85 1012.7
20260906061018 18 338 1.6 6.4 0.00 0.00 0.00 84 1012.8
20260906060018 18 315 1.6 6.4 0.00 0.00 0.00 84 1012.8
20260906055019 19 338 1.6 8.0 0.00 0.00 0.00 83 1012.8
20260906054018 19 293 1.6 3.2 0.00 0.00 0.00 84 1012.7
20260906053018 19 0.0 3.2 0.00 0.00 0.00 84 1012.7
20260906052018 19 293 1.6 3.2 0.00 0.00 0.00 85 1012.6
20260906051038 19 0.0 3.2 0.00 0.00 0.00 84 1012.7
20260906050038 19 248 1.6 4.8 0.00 0.00 0.00 85 1012.7
20260906045018 19 0.0 1.6 0.00 0.00 0.00 84 1012.7
20260906044018 19 0 3.2 6.4 0.00 0.00 0.00 84 1012.7
20260906043018 19 23 1.6 4.8 0.00 0.00 0.00 83 1012.9
20260906042018 20 293 1.6 4.8 0.00 0.00 0.00 83 1012.9
20260906041021 19 293 1.6 4.8 0.00 0.00 0.00 82 1012.9
20260906040017 19 0.0 6.4 0.00 0.00 0.00 83 1012.9
20260906035020 19 248 1.6 4.8 0.00 0.00 0.00 84 1012.9
20260906034018 18 0.0 1.6 0.00 0.00 0.00 84 1012.8
20260906033019 18 0.0 1.6 0.00 0.00 0.00 84 1012.7
20260906032018 18 0.0 1.6 0.00 0.00 0.00 84 1012.6
20260906031018 18 0.0 1.6 0.00 0.00 0.00 83 1012.5
20260906030058 19 270 1.6 3.2 0.00 0.00 0.00 82 1012.6
20260906025018 19 293 1.6 3.2 0.00 0.00 0.00 82 1012.5
20260906024058 19 0.0 3.2 0.00 0.00 0.00 82 1012.5
20260906023018 18 0.0 3.2 0.00 0.00 0.00 82 1012.6
20260906022038 19 225 1.6 3.2 0.00 0.00 0.00 81 1012.4
20260906021018 19 0.0 3.2 0.00 0.00 0.00 80 1012.4
20260906020018 20 225 1.6 3.2 0.00 0.00 0.00 78 1012.4
20260906015017 20 315 1.6 4.8 0.00 0.00 0.00 78 1012.4
20260906014020 20 293 3.2 6.4 0.00 0.00 0.00 78 1012.2
20260906013018 20 23 1.6 4.8 0.00 0.00 0.00 77 1012.2
20260906012019 20 338 3.2 8.0 0.00 0.00 0.00 77 1012.1
20260906011017 20 293 1.6 6.4 0.00 0.00 0.00 77 1012.2
20260906010039 21 293 1.6 4.8 0.00 0.00 0.00 76 1012.2
20260906005017 21 270 1.6 4.8 0.00 0.00 0.00 76 1012.1
20260906004017 21 293 1.6 6.4 0.00 0.00 0.00 76 1012.0
20260906003017 21 338 3.2 8.0 0.00 0.00 0.00 76 1012.0
20260906002017 21 293 3.2 11.3 0.00 0.00 0.00 76 1011.9
20260906001017 21 338 8.0 19.3 0.00 0.00 0.00 75 1011.9
20260906000017 21 338 4.8 11.3 0.00 0.00 0.00 74 1012.1
20260905235018 21 338 8.0 17.7 0.00 0.00 0.00 73 1011.8
20260905234017 21 338 4.8 9.7 0.00 0.00 0.00 72 1011.9
20260905233017 22 338 4.8 11.3 0.00 0.00 0.00 71 1011.7
20260905232017 22 315 4.8 9.7 0.00 0.00 0.00 69 1011.7
20260905231017 22 338 4.8 8.0 0.00 0.00 0.00 68 1011.7
20260905230017 23 338 6.4 12.9 0.00 0.00 0.00 67 1011.7
20260905225017 23 23 6.4 14.5 0.00 0.00 0.00 67 1011.7
20260905224017 23 23 8.0 14.5 0.00 0.00 0.00 67 1011.8
20260905223017 23 315 8.0 19.3 0.00 0.00 0.00 68 1011.8
20260905222017 23 315 9.7 19.3 0.00 0.00 0.00 66 1011.6
20260905221037 23 338 11.3 20.9 0.00 0.00 0.00 66 1011.6
20260905220037 23 338 9.7 20.9 0.00 0.00 0.00 64 1011.5
20260905215017 23 338 8.0 17.7 0.00 0.00 0.00 64 1011.3
20260905214017 23 338 9.7 19.3 0.00 0.00 0.00 63 1011.1
20260905213017 24 293 11.3 19.3 0.00 0.00 0.00 63 1010.9
20260905212037 24 338 9.7 19.3 0.00 0.00 0.00 63 1010.9
20260905211019 24 338 11.3 20.9 0.00 0.00 0.00 62 1010.9
20260905210018 24 338 9.7 17.7 0.00 0.00 0.00 62 1010.9
20260905205018 23 338 12.9 20.9 0.00 0.00 0.00 62 1011.0
20260905204019 24 338 12.9 24.1 0.00 0.00 0.00 62 1010.8
20260905203019 25 338 9.7 19.3 0.00 0.00 0.00 62 1010.9
20260905202039 25 23 8.0 17.7 0.00 0.00 0.00 62 1010.9
20260905201018 24 338 12.9 22.5 0.00 0.00 0.00 61 1010.8
20260905200018 24 315 12.9 22.5 0.00 0.00 0.00 62 1010.8
20260905195018 24 338 17.7 32.2 0.00 0.00 0.00 60 1010.9
20260905194019 25 338 12.9 27.4 0.00 0.00 0.00 62 1010.8
20260905193217 24 315 11.3 19.3 0.00 0.00 0.00 61 1010.7
20260905192540 24 338 9.7 20.9 0.00 0.00 0.00 61 1010.6
20260905191519 23 293 9.7 19.3 0.00 0.00 0.00 62 1010.7
20260905190540 23 338 9.7 19.3 0.00 0.00 0.00 63 1010.7
20260905190018 24 338 12.9 24.1 0.00 0.00 0.00 61 1010.7
20260905185518 24 338 11.3 24.1 0.00 0.00 0.00 62 1010.6
20260905184519 24 338 9.7 17.7 0.00 0.00 0.00 61 1010.6
20260905183518 25 338 12.9 25.7 0.00 0.00 0.00 61 1010.8
20260905182518 25 315 6.4 14.5 0.00 0.00 0.00 57 1010.7
20260905181518 24 293 6.4 14.5 0.00 0.00 0.00 59 1010.8
20260905180518 25 293 4.8 9.7 0.00 0.00 0.00 57 1010.7
20260905175518 25 293 9.7 17.7 0.00 0.00 0.00 58 1010.7
20260905175447 25 293 6.4 14.5 0.00 0.00 0.00 57 1010.8
20260905173520 24 23 8.0 16.1 0.00 0.00 0.00 59 1010.7
20260905172521 24 338 6.4 14.5 0.00 0.00 0.00 60 1010.7
20260905171520 23 338 9.7 16.1 0.00 0.00 0.00 61 1010.9
20260905170521 24 23 3.2 8.0 0.00 0.00 0.00 60 1011.0
20260905165521 24 338 11.3 20.9 0.00 0.00 0.00 60 1011.1
20260905164520 23 293 4.8 14.5 0.00 0.00 0.00 64 1011.0